Flag for U.S.A. Weather past 2 weeks in Bozeman, Montana, U.S.A.

Now
39 °F

Mostly cloudy.


Feels Like: 32 °F
Forecast: 32 / 40 °F
Wind: 10 mph from Northeast

Location: Gallatin Field

Current Time: Dec 21, 2014 at 10:02:37 AM

Latest Report: Dec 21, 2014 at 8:56 AM


Visibility: 10 mi

Pressure: 29.58 "Hg

Humidity: 73%

Dew point: 31 °F

Location of BozemanLocation

Historic Weather in Bozeman — Graph

°F

Bozeman temperature yesterday

Maximum temperature yesterday: 38 °F (at 2:56 PM)
Minimum temperature yesterday: 22 °F (at 5:56 AM)
Average temperature yesterday: 30 °F

Past Weeks' High & Low Weather Summary

 TemperatureHumidityPressure
High57 °F (Dec 12, 12:56 PM)93% (Dec 10, 7:56 PM)30.40 "Hg (Dec 10, 7:56 PM)
Low10 °F (Dec 18, 2:56 AM)29% (Dec 11, 2:56 PM)29.54 "Hg (Dec 21, 6:56 AM)
Average32 °F74%30.07 "Hg
* Reported Dec 6 8:56 AM — Dec 21 8:56 AM, Bozeman, Weather by CustomWeather, © 2014

Note: Actual official high and low records may vary slightly from our data, if they occured in-between our weather recording intervals... More about our weather records

Advertising

Bozeman weather history for previous 24 hours

 ConditionsComfort  
Time TempWeatherWind HumidityBarometerVisibility
8:56 AM
Dec 21
39 °FMostly cloudy.10 mph73%29.58 "Hg10 mi
7:56 AM38 °FPassing clouds.5 mph76%29.56 "Hg10 mi
6:56 AM42 °FMostly cloudy.5 mph65%29.54 "Hg10 mi
5:56 AM40 °FOvercast.5 mph65%29.56 "Hg10 mi
4:56 AM40 °FOvercast.No wind63%29.56 "Hg10 mi
3:56 AM38 °FOvercast.5 mph68%29.59 "Hg10 mi
2:56 AM34 °FOvercast.6 mph79%29.61 "Hg10 mi
1:56 AM33 °FOvercast.6 mph82%29.65 "Hg10 mi
12:56 AM33 °FOvercast.6 mph78%29.68 "Hg10 mi
11:56 PM
Dec 20
34 °FOvercast.5 mph76%29.72 "Hg10 mi
10:56 PM32 °FOvercast.5 mph79%29.79 "Hg10 mi
9:56 PM31 °FPassing clouds.8 mph82%29.80 "Hg10 mi
8:56 PM31 °FOvercast.7 mph79%29.82 "Hg10 mi
7:56 PM31 °FOvercast.8 mph79%29.84 "Hg10 mi
6:56 PM29 °FPassing clouds.9 mph79%29.89 "Hg10 mi
5:56 PM30 °FOvercast.8 mph75%29.91 "Hg10 mi
4:56 PM34 °FOvercast.3 mph70%29.93 "Hg10 mi
3:56 PM36 °FScattered clouds.No wind64%29.92 "Hg10 mi
2:56 PM38 °FPartly sunny.No wind63%29.93 "Hg10 mi
1:56 PM37 °FOvercast.No wind65%29.93 "Hg10 mi
12:56 PM34 °FMostly cloudy.3 mph70%29.96 "Hg10 mi
11:56 AM34 °FOvercast.No wind70%30.00 "Hg10 mi
10:56 AM32 °FMore clouds than sun.3 mph75%30.03 "Hg10 mi
Weather by CustomWeather, © 2014

See weather overviewHow to use our weather pages